カタログに戻る

FENGYUN 1C DEB

運用中SSO
NORAD 30715·DEBRIS·🇨🇳 China

打ち上げ May 10, 1999 から Taiyuan Satellite Launch Center

Loading…

次のパス (今後24時間)

TLE

最新Source: Space-Track

元期: Sep 14, 2026, 03:59 UTC

1 30715U 99025ARZ 26257.16600278  .00001833  00000-0  92970-3 0  9998
2 30715  98.9599 332.8963 0066442 107.1336 253.7128 14.16126850   725

AllMySatでFENGYUN 1C DEBをリアルタイム追跡

Download on the App Store